OpenBCM V1.13 (Linux)

Packet Radio Mailbox

DB0FHN

[JN59NK Nuernberg]

 Login: GUEST





  
WG3K   > KEPS     29.12.24 17:53l 348 Lines 16640 Bytes #999 (0) @ AMSAT
BID : ORB24364.1
Read: DJ6UX GUEST
Subj: 2Line Orbital Elements 24364.AMSAT
Path: DB0FHN<DB0RKB<DK0WUE<DK0WUE<VK5RSV<VK2RZ<LU9DCE<W0ARP<KE0GB<N3HYM<
      WG3K
Sent: 241229/1546Z 11450@WG3K.#SMD.MD.USA.NOAM LinBPQ6.0.24


QST de W1STR

AMSAT Orbital Elements for Amateur Satellites in TLE Format
From Orbital Analysis Office
New England Sci-Tech STEM Education Center
Natick, MA December 29, 2024
To all radio amateurs


These element sets describe the orbits of various satellites 
in use by the amateur radio community. For details see:
www.amsat.org/keplerian-elements-formats/

A daily update of element sets is available at:
www.amsat.org/tle/daily-bulletin.txt
or without bulletin text:
www.amsat.org/tle/dailytle.txt


AO-07
1 07530U 74089B   24363.80235588 -.00000028  00000-0  11537-3 0  9991
2 07530 101.9902   0.3562 0012400  73.1143 101.7970 12.53684296293668
UO-11
1 14781U 84021B   24363.83405111  .00003831  00000-0  41939-3 0  9991
2 14781  97.7317 327.7635 0008615 144.5099 215.6693 14.88346530198420
AO-27
1 22825U 93061C   24363.41360300  .00000407  00000-0  17279-3 0  9993
2 22825  98.7630  57.9672 0007653 225.6933 134.3622 14.30691356630380
FO-29
1 24278U 96046B   24363.50226560  .00000041  00000-0  76115-4 0  9991
2 24278  98.5888 272.7290 0350638  45.1038 317.8003 13.53227635400717
NOAA-15
1 25338U 98030A   24363.77963064  .00000499  00000-0  22322-3 0  9997
2 25338  98.5518  26.7038 0011248 113.7043 246.5319 14.26838433385187
GO-32
1 25397U 98043D   24363.35918676  .00000347  00000-0  17059-3 0  9992
2 25397  98.9497 333.2682 0001055  10.5941 349.5259 14.24220622375054
ISS
1 25544U 98067A   24363.84818016  .00025281  00000-0  44329-3 0  9997
2 25544  51.6384  70.9030 0005917  17.2655 342.8534 15.50384036488741
NO-44
1 26931U 01043C   24363.52295724  .00000601  00000-0  25668-3 0  9990
2 26931  67.0492 189.3748 0006486 260.4154  99.6215 14.31555327213764
SO-50
1 27607U 02058C   24363.56670777  .00004575  00000-0  60573-3 0  9995
2 27607  64.5554 343.3578 0036675  17.8649 342.3735 14.80603451185089
CO-55
1 27844U 03031E   24363.44163577  .00001075  00000-0  48952-3 0  9991
2 27844  98.6775   7.8340 0008818 305.0679  54.9673 14.23727265115422
CO-57
1 27848U 03031J   24363.80792773  .00000916  00000-0  42495-3 0  9990
2 27848  98.6802   8.3193 0008892 322.1655  37.8897 14.23102126115268
RS-22
1 27939U 03042A   24363.80618580  .00003664  00000-0  59858-3 0  9990
2 27939  98.3078 163.5782 0011958 160.3786 306.6463 14.71463866136884
NOAA-18
1 28654U 05018A   24363.74917823  .00000522  00000-0  30077-3 0  9997
2 28654  98.8594  78.9727 0013586 228.8431 131.1570 14.13466766 10745
CO-58
1 28895U 05043F   24363.34257457  .00004987  00000-0  84303-3 0  9998
2 28895  98.2241 140.0434 0016022 103.6071 256.6920 14.69748806 22956
CO-65
1 32785U 08021C   24363.55957386  .00011688  00000-0  91353-3 0  9990
2 32785  97.7696 328.1016 0012204  62.2876 297.9584 15.01186412904592
AAUSAT2
1 32788U 08021F   24363.69252272  .00086191  00000-0  22074-2 0  9994
2 32788  97.6041 347.2655 0003656 131.1896 228.9664 15.39059264908095
CO-66
1 32791U 08021J   24363.69004013  .00024315  00000-0  14207-2 0  9995
2 32791  97.7113 335.0714 0005860  29.7667 330.3895 15.11876389905904
RS-30
1 32953U 08025A   24363.83369521  .00000044  00000-0  24697-3 0  9991
2 32953  82.5042 328.4141 0020452  42.4930 317.7728 12.43156062753317
PRISM
1 33493U 09002B   24363.45238175  .00097862  00000-0  22074-2 0  9995
2 33493  98.1746  70.4715 0007511 293.1335  66.9118 15.42838170868724
NOAA-19
1 33591U 09005A   24363.80019037  .00000474  00000-0  27700-3 0  9995
2 33591  99.0225  61.4276 0014701 103.1899 257.0914 14.13241989819110
SRMSAT
1 37841U 11058D   24363.48675972  .00000754  00000-0  26657-3 0  9999
2 37841  19.9727  61.4136 0011960  71.1359 317.0184 14.11321419682045
RS-40
1 38735U 12041C   24363.78150696  .00000056  00000-0  33203-3 0  9999
2 38735  82.4758  48.5426 0018173 152.4109 207.7938 12.42622813563442
ZACUBE-1
1 39417U 13066B   24363.44018204  .00010615  00000-0  99005-3 0  9990
2 39417  97.7603 315.8804 0044819 235.3969 124.3019 14.93633894600534
Delfi-N3xt
1 39428U 13066N   24363.72906085  .00013187  00000-0  14692-2 0  9991
2 39428  97.8387 277.6582 0090834 174.2300 185.9983 14.84199072595061
GOMX-1
1 39430U 13066Q   24363.75164829  .00006247  00000-0  99544-3 0  9998
2 39430  97.7032 226.3078 0135536 353.6876   6.2616 14.66289202591532
LO-74
1 39440U 13066AA  24363.42062285  .00011630  00000-0  12463-2 0  9992
2 39440  97.8334 303.5866 0065649 359.2895   0.8216 14.87224125598362
AO-73
1 39444U 13066AE  24363.61353320  .00014170  00000-0  11839-2 0  9998
2 39444  97.7428 319.8562 0042122 210.9918 148.8818 14.97933037599746
DTUSAT-2
1 40030U 14033W   24363.54581843  .00014488  00000-0  10499-2 0  9994
2 40030  98.0361 322.1926 0007560 247.7036 112.3387 15.04047379571859
EO-80
1 40032U 14033Y   24363.37533821  .00015781  00000-0  11411-2 0  9992
2 40032  98.0245 321.8871 0008538 181.5845 178.5355 15.04103243571803
XW-2C
1 40906U 15049H   24363.12647139  .00188208  00000-0  12286-2 0  9997
2 40906  97.4524  28.3329 0002473 348.1428  11.9778 15.75309331514601
LILACSAT-2
1 40908U 15049K   24363.83040575  .00019317  00000-0  60333-3 0  9999
2 40908  97.5177  14.8042 0011796  31.4887 328.7059 15.33161934513248
IO-86
1 40931U 15052B   24337.09180034  .00002217  00000-0  20975-3 0  9992
2 40931   5.9986 232.5457 0013173 302.5393  57.3463 14.78392648496340
ChubuSat-2
1 41338U 16012B   24363.78567730  .00011832  00000-0  65422-3 0  9997
2 41338  30.9979 214.5029 0010701  33.0561 327.0745 15.12600982487043
ChubuSat-3
1 41339U 16012C   24363.76605675  .00010528  00000-0  59940-3 0  9996
2 41339  31.0046 214.7484 0010732  35.0446 325.0897 15.11527579487007
Horyu-4
1 41340U 16012D   24363.72314323  .00033450  00000-0  12311-2 0  9990
2 41340  30.9991 138.9358 0007574 157.3147 202.7831 15.26647249487797
Lapan A3
1 41603U 16040E   24363.80056685  .00006686  00000-0  24760-3 0  9999
2 41603  97.1382   9.0021 0013001 124.2071 236.0403 15.27885804472919
Pratham
1 41783U 16059A   24362.99192805  .00002079  00000-0  38620-3 0  9994
2 41783  97.8283  13.2620 0033195 123.8618 236.5752 14.65821425440923
CAS-2T
1 41847U 16066G   24363.46770713  .00002560  00000-0  37785-3 0  9992
2 41847  98.4413  73.2944 0348310 311.7324  45.4556 14.42605902427492
CAS-4B
1 42759U 17034B   24363.81343795  .00050848  00000-0  11335-2 0  9990
2 42759  43.0108 196.1801 0016312 240.5961 119.3268 15.42680731417303
CAS-4A
1 42761U 17034D   24363.79098128  .00047945  00000-0  10576-2 0  9997
2 42761  43.0149 194.4084 0017388 247.4237 112.4781 15.42995937417313
D-SAT
1 42794U 17036AF  24362.91032868  .00011036  00000-0  67770-3 0  9998
2 42794  97.4960 338.4854 0099356 207.7668 151.8235 15.06154473409820
TechnoSat
1 42829U 17042E   24363.49602985  .00008883  00000-0  72356-3 0  9993
2 42829  97.3862 174.1671 0014057 130.3679 229.8775 14.99641377406264
AO-91
1 43017U 17073E   24363.44318913  .00020285  00000-0  11149-2 0  9999
2 43017  97.5481 232.5469 0190350   1.3522 358.8176 14.99889414384711
S-Net D
1 43186U 18014G   24363.26772840  .00011203  00000-0  71507-3 0  9990
2 43186  97.5771 262.0304 0011564  67.4008 292.8442 15.08788835377729
S-Net B
1 43187U 18014H   24363.66924127  .00011563  00000-0  73790-3 0  9997
2 43187  97.5779 262.3895 0012268  62.1756 298.0714 15.08783134377783
S-Net A
1 43188U 18014J   24363.46756431  .00011550  00000-0  73681-3 0  9992
2 43188  97.5785 262.3210 0012185  63.5287 296.7190 15.08796510377756
S-Net C
1 43189U 18014K   24363.67131415  .00011954  00000-0  76238-3 0  9994
2 43189  97.5800 262.5076 0013670  55.9532 304.2992 15.08780831376332
Ten-Koh
1 43677U 18084G   24363.40883883  .00007670  00000-0  63950-3 0  9994
2 43677  98.0817 163.3225 0015420  92.0304 268.2684 14.98810606335789
PO-101
1 43678U 18084H   24363.83673476  .00003375  00000-0  29877-3 0  9995
2 43678  98.0875 168.0328 0009897 103.3215 256.9110 14.96957583336028
QO-100
1 43700U 18090A   24363.74971508  .00000172  00000-0  00000+0 0  9990
2 43700   0.0269  18.5483 0002331 306.9535  67.9065  1.00269012 22550
MinXSS-2
1 43758U 18099A   24363.41357041  .00024564  00000-0  12114-2 0  9999
2 43758  97.5287  63.6246 0013986  13.0384 347.1208 15.17828230332156
AO-95
1 43770U 18099N   24363.56726244  .00018312  00000-0  10601-2 0  9997
2 43770  97.5195  57.7851 0013146  60.3279 299.9258 15.12210827331879
RANGE-B
1 43772U 18099Q   24363.63146300  .00032364  00000-0  14803-2 0  9997
2 43772  97.4995  62.5099 0003592 323.5294  36.5696 15.20460537332158
RANGE-A
1 43773U 18099R   24363.41779738  .00010634  00000-0  72548-3 0  9998
2 43773  97.4760  50.6089 0012833  36.9506 323.2603 15.06324207331638
MOVE-II
1 43780U 18099Y   24363.13392055  .00065235  00000-0  19119-2 0  9999
2 43780  97.4939  66.3411 0004683  27.1880 332.9607 15.34952903332462
SNUSat 2
1 43782U 18099AA  24363.67864344  .00015490  00000-0  94387-3 0  9994
2 43782  97.4883  55.8739 0013128   3.8462 356.2866 15.10391464331872
SnugLite
1 43784U 18099AC  24363.10076143  .00018296  00000-0  10537-2 0  9997
2 43784  97.4695  54.6366 0004176  23.2367 336.9052 15.12461314331888
ITASat 1
1 43786U 18099AE  24363.40069155  .00012341  00000-0  77576-3 0  9999
2 43786  97.4845  55.5257 0016795  52.6474 307.6282 15.09260854331816
EAGLET 1
1 43790U 18099AJ  24363.57430314  .00010546  00000-0  71558-3 0  9990
2 43790  97.5035  56.0614 0013412  32.7189 327.4867 15.06524723331501
ESEO
1 43792U 18099AL  24363.52653853  .00004259  00000-0  33379-3 0  9995
2 43792  97.4800  51.3156 0008171   4.2890 355.8404 15.01466829331341
CSIM
1 43793U 18099AM  24363.44029055  .00070699  00000-0  20927-2 0  9993
2 43793  97.5097  68.5325 0008051 354.3176   5.7974 15.34593898332350
